User: anonymous   Login
Location: Bruch
(44.2051°N, 0.4120°E)
Time: 09:12:12
(UTC+00:00)
Language:

Cosmos 2074 Rocket - Orbit

View from above orbital plane
View from above orbital plane
View from above satellite
View from above satellite

Ground track
Ground track

The orbit data is extracted from the following two-line orbital elements,

1 20578U 90036B   21065.74362892  .00000142  00000-0  12983-3 0  9998
2 20578  82.9402  71.3095 0013822 133.3582  40.2628 13.76382176550573
Epoch (UTC): 06 March 2021 17:50:49
Eccentricity: 0.0013822
inclination: 82.9402°
perigee height: 966 km
apogee height: 987 km
right ascension of ascending node: 71.3095°
argument of perigee: 133.3582°
revolutions per day: 13.76382176
mean anomaly at epoch: 40.2628°
orbit number at epoch: 55057

The dashed part of the orbit path shows where the satellite is in the earth's shadow,  

DLR